Flag for Central African Republic Weather past 2 weeks in Bangui, Central African Republic

Now
81 °F

Passing clouds.


Feels Like: 84 °F
Forecast: 72 / 90 °F
Wind: 2 mph from North

Location: Bangui Airport


UV Index: 10 (Very high)

Visibility: N/A


Pressure: 29.80 "Hg

Humidity: 70%

Dew point: 70 °F

Location of BanguiLocation

Historic Weather in Bangui

°F

Bangui temperature yesterday

Maximum temperature yesterday: 84 °F (at 1:00 PM)
Minimum temperature yesterday: 70 °F (at 12:00 AM)
Average temperature yesterday: 77 °F

Past Weeks' High & Low Weather Summary

 TemperatureHumidityPressure
High97 °F (Apr 9, 1:00 PM)100% (Apr 2, 8:00 PM)30.01 "Hg (Apr 2, 8:00 PM)
Low68 °F (Apr 3, 3:00 AM)42% (Apr 9, 1:00 PM)29.71 "Hg (Apr 1, 5:00 PM)
Average79 °F82%29.85 "Hg
* Reported Apr 1 5:00 PM — Apr 16 5:00 PM, Bangui, Weather by CustomWeather, © 2014

Note: Actual official high and low records may vary slightly from our data, if they occured in-between our weather recording intervals... More about our weather records

Advertising

Historic Weather Conditions — Data for Previous 24 hours

 ConditionsComfort  
Time TempWeatherWind HumidityBarometerVisibility
5:00 PM
Apr 16
82 °FPartly sunny.3 mph66%29.77 "HgN/A
4:00 PM86 °FPartly sunny.6 mph59%29.77 "HgN/A
3:00 PM86 °FPartly sunny.5 mph59%29.77 "HgN/A
2:00 PM86 °FSunny.3 mph59%29.83 "Hg10 mi
1:00 PM84 °FSunny.No wind58%29.86 "Hg10 mi
12:00 PM81 °FPartly sunny.2 mph70%29.89 "HgN/A
11:00 AM81 °FPartly sunny.3 mph70%29.95 "HgN/A
10:00 AM79 °FBroken clouds.15 mph79%30.01 "HgN/A
9:00 AM79 °FBroken clouds.10 mph84%30.01 "HgN/A
8:00 AM77 °FPartly sunny.1 mph89%29.92 "HgN/A
6:00 AM73 °FPartly sunny.No wind100%29.86 "HgN/A
5:00 AM73 °FPassing clouds.5 mph100%29.86 "HgN/A
4:00 AM73 °FPassing clouds.3 mph100%29.86 "HgN/A
1:00 AM75 °FClear.No wind94%29.89 "Hg10 mi
12:00 AM75 °FClear.1 mph94%29.89 "Hg10 mi
11:00 PM
Apr 15
75 °FClear.2 mph94%29.89 "Hg10 mi
10:00 PM75 °FClear.3 mph94%29.89 "Hg10 mi
9:00 PM77 °FClear.No wind94%29.89 "Hg10 mi
8:00 PM77 °FClear.3 mph94%29.86 "Hg10 mi
7:00 PM77 °FPassing clouds.2 mph94%29.86 "Hg5 mi
6:00 PM79 °FPartly cloudy.5 mph84%29.83 "HgN/A
Weather by CustomWeather, © 2014

See weather overview